Accueil
METAR-TAF:

METAR-TAF

Aéroports :

Plate-forme pétrolière

P11-b, Pays-Bas

latitude: 52-21-36N, longitude: 3-20-30E, altitude: 24 m

Observation

Le bulletin a été fait il y a 29 minutes, à 22:55 UTC
Vent 19 kt de sud/sud-ouest, variant entre est/sud-est et ouest/nord-ouest
Température 7°C
Humidité 76%
Pression 990 hPa
Visibilité 10 km ou plus
Quelques nuages à une hauteur de 2500 ft

METAR: EHPG 232255Z AUTO 20019KT 120V290 9999 // FEW025 07/03 Q0990 RE//

Heure: 00:24 (23:24 UTC)


TAF: absent

Observations et prévisions météorologiques de plus de 4000 aéroports (messages METAR et TAF).

Les stations disponibles sont représentées par des disques jaunes et rouges sur la carte.

Passer la souris dessus pour voir le nom de la station.

Cliquer dessus pour voir les observations et prévisions météorologiques.

Pour changer de carte: cliquez sur les boutons verts avec une croix noire pour zoomer, sur le bouton vert avec un tiret pour effectuer un zoom arrière, ou sur les flèches vertes pour les cartes adjacentes.


METAR-TAF: